STARLINK-11698, 64325

Orbit data source: Space-Track

STARLINK-11698, 64325 is a payload satellite owned by SpaceX/Seattle (US) in LEO that was launched on Tue, 10 Jun 2025 UTC via an FALCON 9 launch vehicle from the Air Force Eastern Test Range (AFETR). Payload-class satellites include a variety of spacecraft equipped with specific instruments for various scientific and technological missions. These include communications satellites like Starlink; space stations such as the ISS; scientific satellites like the Hubble; Earth observation satellites from companies like Planet Labs, Umbra, and HawkEye 360; GPS; miniature CubeSats for education and research; and military/defense satellites.

Loading next visibility...
Identifier
64325, 2025-124J
Orbit
LEO
Country
Flag of USUS
Related business
Manufacturer
SpaceX/Seattle
Mission
Operational Commercial Communications
Bus & Motor
STARLINK V2MD, Unknown motor
Mass
960 kg wet, ~910 kg dry
Launch date (UTC)
2025-06-10 (9 months ago)
Launch vehicle
FALCON 9
Launch site
Air Force Eastern Test Range (AFETR)
Object type
Payload
Rocket body
Debris
Shape & HBR
Box + 2 Pan, 18.1 m
Radar Cross Section
36.964 m², Large (>1 m²)

Expand to show TLE details & history
Last TLE update: 22 hours ago

TLE from 22 hours ago
0 STARLINK-11698
1 64325U 25124J   26074.01591493  .00211313  00000-0  16097-2 0  9991
2 64325  42.9998 356.9661 0001436 295.6963  64.3756 15.70826816 43678
Epoch: 2026-03-15T00:22Z
TLE epoch observation values (Epoch: 2026-03-15T00:22:55.049Z)
Latitude
-0.00006°
Longitude
178.60786°
Altitude
355.886 km
Speed
7.698 km/s
True Right ascension
23h 47m 51s
True Declination
0° 00' 00"
Sunlit
Object was in daylight at epoch
Visualization orbit readout
Latitude
Unknown
Longitude
Unknown
Altitude
Unknown
Speed
Unknown
Apparent Right ascension
Unknown
Apparent Declination
Unknown
Sunlit
N/A
Visualization observer readout
Local Sidereal Time
02:46:22
Azimuth
Unknown
Elevation
Unknown
Doppler factor
Unknown
Orbital elements
Apogee altitude
359.482 km
Perigee altitude
357.547 km
Semi-major axis
6,736.651 km
Eccentricity
0.00014
Inclination
42.9998°
RAAN
356.9661°
Arg. of periapsis
295.6963°
True anomaly
64.39044°
Mean anomaly
64.3756°
Eccentric anomaly
64.38302°
Mean motion
3.92534 °/min
Orbital period
91.71 mins
BSTAR
0.0016097
Loading maneuver chart data...
Computing Atmospheric mass density...
Loading historical data...
Loading historical data...
Loading historical data...
Loading historical data...
Loading historical data...
Loading historical data...
Loading historical data...

Documentation

Showing up to 5 results
|